This is the latest recevied weather packets stored in our database for station/object K7TUS-6. If no packets are shown the sender has not sent any weather packets the latest 10 day(s).
| Time | Temp. | Humidity | Pressure | Rain* | Wind** | Luminosity | Snow |
|---|---|---|---|---|---|---|---|
| 1778181005 | 20° C | 1% | 985.3 hPa | - | - | - | - |
| 1778180704 | 20° C | 1% | 985.2 hPa | - | - | - | - |
| 1778180403 | 20° C | 1% | 985.2 hPa | - | - | - | - |
| 1778180103 | 20° C | 1% | 984.3 hPa | - | - | - | - |
| 1778179808 | 20° C | 1% | 984.3 hPa | - | - | - | - |
| 1778179508 | 19.44° C | 1% | 984.8 hPa | - | - | - | - |
| 1778179207 | 19.44° C | 1% | 985.4 hPa | - | - | - | - |
| 1778178906 | 18.89° C | 1% | 984 hPa | - | - | - | - |
| 1778178606 | 18.89° C | 1% | 986.4 hPa | - | - | - | - |
| 1778178305 | 18.89° C | 1% | 985.9 hPa | - | - | - | - |
| 1778178004 | 18.33° C | 1% | 984.3 hPa | - | - | - | - |
| 1778177704 | 18.89° C | 1% | 985.9 hPa | - | - | - | - |
| 1778177403 | 18.33° C | 1% | 986.6 hPa | - | - | - | - |
| 1778177108 | 17.78° C | 1% | 985.9 hPa | - | - | - | - |
| 1778176808 | 18.33° C | 1% | 986.1 hPa | - | - | - | - |
| 1778176507 | 18.33° C | 1% | 985.1 hPa | - | - | - | - |
| 1778176207 | 18.33° C | 1% | 986.1 hPa | - | - | - | - |
| 1778175906 | 18.33° C | 1% | 985 hPa | - | - | - | - |
| 1778175605 | 18.33° C | 1% | 986 hPa | - | - | - | - |
| 1778175305 | 18.33° C | 1% | 986.3 hPa | - | - | - | - |
| 1778175004 | 17.78° C | 1% | 985.6 hPa | - | - | - | - |
| 1778174403 | 18.33° C | 1% | 986.1 hPa | - | - | - | - |
| 1778174109 | 17.78° C | 1% | 985.3 hPa | - | - | - | - |
| 1778173808 | 17.78° C | 1% | 984.8 hPa | - | - | - | - |
| 1778173507 | 17.78° C | 1% | 985.1 hPa | - | - | - | - |
* Rain since midnight (hover to see other rain measurements)
** Current wind speed in m/s (hover to see current wind gust speed)